ARIANE 44LP DEB, 25541

Orbit data source: Space-Track

ARIANE 44LP DEB, 25541 is space debris in HEO originally from a launch on Sun, 11 Dec 1988 UTC launched from the French Guiana (FRGUI). Debris objects in space refer to the collection of defunct objects orbiting the Earth. Examples of debris include non-operational satellites, rocket bodies, and fragments generated from explosions, collisions, or faulty payload assembly.

Loading next visibility...
Identifier
25541, 1988-109H
Orbit
HEO
Country
Flag of FRFR
Related business
Manufacturer
Unknown
Mission
Spacecraft
Bus & Motor
Unknown
Mass
Unknown
Launch date (UTC)
1988-12-11 (37 years ago)
Launch vehicle
Unknown
Launch site
French Guiana (FRGUI)
Object type
Payload
Rocket body
Debris
Shape & HBR
Unknown shape, 1.1 m
Radar Cross Section
Medium (>0.1 m² and <1 m²)

Expand to show TLE details & history
Last TLE update: 1 day ago

TLE from 1 day ago
0 ARIANE 44LP DEB
1 25541U 88109H   26034.95086645  .00003496  00000-0  14662-1 0  9993
2 25541   6.6270 216.6301 7090629  95.4612 341.7163  2.41198325234233
Epoch: 2026-02-03T22:49Z
TLE epoch observation values (Epoch: 2026-02-03T22:49:14.861Z)
Latitude
-0.00001°
Longitude
99.90929°
Altitude
6,153.006 km
Speed
6.829 km/s
True Right ascension
14h 25m 22s
True Declination
0° 00' 00"
Sunlit
Object was in daylight at epoch
Visualization orbit readout
Latitude
Unknown
Longitude
Unknown
Altitude
Unknown
Speed
Unknown
Apparent Right ascension
Unknown
Apparent Declination
Unknown
Sunlit
N/A
Visualization observer readout
Local Sidereal Time
03:02:36
Azimuth
Unknown
Elevation
Unknown
Doppler factor
Unknown
Orbital elements
Apogee altitude
33,770.816 km
Perigee altitude
456.497 km
Semi-major axis
23,491.793 km
Eccentricity
0.70906
Inclination
6.627°
RAAN
216.6301°
Arg. of periapsis
95.4612°
True anomaly
264.44865°
Mean anomaly
341.7163°
Eccentric anomaly
311.10337°
Mean motion
0.60279 °/min
Orbital period
597.22 mins
BSTAR
0.014662
Loading maneuver chart data...
Computing Atmospheric mass density...
Loading historical data...
Loading historical data...
Loading historical data...
Loading historical data...
Loading historical data...
Loading historical data...
Loading historical data...

Documentation

Showing up to 5 results
|